Погода в Оряхове

Болгария     43°44′05″N   23°57′41″E
темп.,
°C
ветер,
м/с
пор.,
м/с
влажн.,
%
обл.,
%
осадки,
мм/ч
давл.,
гПа
погр.,
м
3 марта, ср
ср323:00+7з411660 0.0 1032298
02:00+5з49700 0.0 1032239
05:00+4з36760 0.0 1032141
08:00+5зюз37760 0.0 1032242
11:00+10зсз46560 0.0 1031583
14:00+14зсз34440 0.0 1030858
17:00+14зсз12420 0.0 1029851
20:00+10св01550 0.0 102922
4 марта, чт
чт423:00+9ю12590 0.0 102822
02:00+7ююз11660 0.0 102722
05:00+6зюз11690 0.0 102522
08:00+7ююз01680 0.0 102422
11:00+12зюз12470 0.0 1021393
14:00+17з34320 0.0 1019764
17:00+17зсз35350 0.0 1016331
20:00+13юз23420 0.0 101723
5 марта, пт
пт523:00+10з23530 0.0 101723
02:00+9з22610 0.0 101622
05:00+8зюз23610 0.0 101422
08:00+8зюз37563 0.0 1015152
11:00+14зсз683872 0.0 1014719
14:00+17зсз693257 0.0 10131631
17:00+16сз583619 0.0 10131407
20:00+11сз374954 0.0 1015212
6 марта, сб
сб623:00+9зюз345792 0.0 101756
02:00+9зюз466195 0.0 1017109
05:00+8з236595 0.0 101831
08:00+8сз367493 0.0 1020308
11:00+8сз1576100 0.2 1022667
14:00+8с3567100 0.4 1024693
17:00+3всв689399 0.1 1027304
20:00+3в3491100 0.1 1029255
7 марта, вс
вс723:00+3всв3492100 0.1 1031259
02:00+1в5894100 0.6 1031384
05:00+2в3676100 0.1 1031634
08:00+2в3578100 0.1 1031413
11:00+5в115660 0.0 1030920
14:00+7сз214870 0.0 10271414
17:00+7з214234 0.0 10251369
20:00+4зюз235817 0.0 102472